Hourly Weather Golczowice

Today, 17 May, Monday

Time Temperature Precipitation Wind Pressure Humidity
00:00 +9°C° 0.1 mm 2 mps 740 mmHg 85%
01:00 +9°C° 0 mm 2 mps 740 mmHg 89%
02:00 +9°C° 0.3 mm 2 mps 740 mmHg 91%
03:00 +9°C° 0.3 mm 2 mps 740 mmHg 93%
04:00 +9°C° 0.3 mm 3 mps 739 mmHg 95%
05:00 +10°C° 0 mm 2 mps 740 mmHg 91%
06:00 +12°C° 0 mm 2 mps 740 mmHg 88%
07:00 +13°C° 0 mm 2 mps 740 mmHg 85%
08:00 +14°C° 0.2 mm 2 mps 740 mmHg 81%
09:00 +15°C° 0.2 mm 2 mps 740 mmHg 77%
10:00 +16°C° 0.2 mm 3 mps 740 mmHg 73%
11:00 +16°C° 0.4 mm 3 mps 740 mmHg 73%
12:00 +16°C° 0.4 mm 3 mps 740 mmHg 73%
13:00 +16°C° 0.4 mm 2 mps 740 mmHg 72%
14:00 +15°C° 0.8 mm 2 mps 740 mmHg 78%
15:00 +14°C° 0.8 mm 2 mps 740 mmHg 84%
16:00 +13°C° 0.8 mm 2 mps 740 mmHg 90%
17:00 +13°C° 0.8 mm 2 mps 741 mmHg 91%
18:00 +12°C° 0.8 mm 2 mps 741 mmHg 92%
19:00 +12°C° 0.8 mm 2 mps 741 mmHg 94%
20:00 +11°C° 0.1 mm 3 mps 741 mmHg 93%
21:00 +11°C° 0.1 mm 3 mps 741 mmHg 92%
22:00 +11°C° 0.1 mm 3 mps 742 mmHg 92%
23:00 +10°C° 0.1 mm 4 mps 742 mmHg 92%

Tomorrow, 18 May, Tuesday

Time Temperature Precipitation Wind Pressure Humidity
00:00 +9°C° 0.1 mm 5 mps 742 mmHg 91%
01:00 +9°C° 0.1 mm 5 mps 742 mmHg 91%
02:00 +9°C° 0 mm 5 mps 742 mmHg 91%
03:00 +8°C° 0 mm 5 mps 743 mmHg 91%
04:00 +8°C° 0 mm 5 mps 743 mmHg 91%
05:00 +8°C° 0 mm 5 mps 743 mmHg 89%
06:00 +9°C° 0 mm 5 mps 743 mmHg 87%
07:00 +10°C° 0 mm 5 mps 744 mmHg 85%
08:00 +10°C° 0.2 mm 5 mps 744 mmHg 83%
09:00 +11°C° 0.2 mm 6 mps 744 mmHg 81%
10:00 +11°C° 0.2 mm 6 mps 744 mmHg 79%
11:00 +13°C° 0.3 mm 6 mps 744 mmHg 77%
12:00 +13°C° 0.3 mm 6 mps 744 mmHg 75%
13:00 +14°C° 0.3 mm 6 mps 745 mmHg 74%
14:00 +14°C° 0.1 mm 5 mps 744 mmHg 71%
15:00 +15°C° 0.1 mm 5 mps 744 mmHg 69%
16:00 +15°C° 0.1 mm 5 mps 744 mmHg 67%
17:00 +14°C° 0.1 mm 4 mps 744 mmHg 72%
18:00 +13°C° 0.1 mm 3 mps 745 mmHg 78%
19:00 +12°C° 0.1 mm 3 mps 745 mmHg 83%
20:00 +11°C° 0 mm 3 mps 745 mmHg 86%
21:00 +10°C° 0 mm 3 mps 745 mmHg 90%
22:00 +9°C° 0 mm 3 mps 746 mmHg 93%
23:00 +8°C° 0 mm 3 mps 746 mmHg 93%

Day after tomorrow, 19 May, Wednesday

Time Temperature Precipitation Wind Pressure Humidity
00:00 +8°C° 0 mm 3 mps 746 mmHg 93%
01:00 +8°C° 0 mm 3 mps 747 mmHg 94%
02:00 +7°C° 0 mm 3 mps 747 mmHg 94%
03:00 +7°C° 0 mm 3 mps 747 mmHg 94%
04:00 +7°C° 0 mm 3 mps 747 mmHg 94%
05:00 +8°C° 0 mm 3 mps 747 mmHg 89%
06:00 +8°C° 0 mm 4 mps 747 mmHg 85%
07:00 +10°C° 0 mm 4 mps 747 mmHg 80%
08:00 +11°C° 0.1 mm 4 mps 747 mmHg 77%
09:00 +12°C° 0.1 mm 5 mps 748 mmHg 73%
10:00 +12°C° 0.1 mm 5 mps 748 mmHg 70%
11:00 +12°C° 0.1 mm 5 mps 748 mmHg 71%
12:00 +12°C° 0.1 mm 5 mps 748 mmHg 73%
13:00 +11°C° 0.1 mm 6 mps 748 mmHg 74%
14:00 +11°C° 0.1 mm 6 mps 748 mmHg 75%
15:00 +11°C° 0.1 mm 6 mps 748 mmHg 75%
16:00 +11°C° 0.1 mm 6 mps 747 mmHg 76%
17:00 +10°C° 0.1 mm 5 mps 748 mmHg 79%
18:00 +10°C° 0.1 mm 5 mps 748 mmHg 83%
19:00 +10°C° 0.1 mm 4 mps 748 mmHg 86%
20:00 +8°C° 0 mm 4 mps 748 mmHg 87%
21:00 +8°C° 0 mm 4 mps 748 mmHg 88%
22:00 +7°C° 0 mm 4 mps 749 mmHg 88%
23:00 +7°C° 0 mm 4 mps 749 mmHg 88%

20 May, Thursday

Time Temperature Precipitation Wind Pressure Humidity
00:00 +7°C° 0 mm 4 mps 749 mmHg 87%
01:00 +7°C° 0 mm 4 mps 748 mmHg 86%
02:00 +7°C° 0 mm 4 mps 749 mmHg 86%
03:00 +7°C° 0 mm 4 mps 749 mmHg 86%
04:00 +7°C° 0 mm 4 mps 749 mmHg 86%
05:00 +7°C° 0 mm 4 mps 749 mmHg 84%
06:00 +8°C° 0 mm 4 mps 750 mmHg 83%
07:00 +8°C° 0 mm 4 mps 750 mmHg 82%
08:00 +11°C° 0.1 mm 4 mps 750 mmHg 77%
09:00 +12°C° 0.1 mm 5 mps 750 mmHg 72%
10:00 +13°C° 0.1 mm 5 mps 750 mmHg 68%
11:00 +13°C° 0.3 mm 5 mps 750 mmHg 69%
12:00 +13°C° 0.3 mm 5 mps 750 mmHg 71%
13:00 +13°C° 0.3 mm 6 mps 750 mmHg 73%
14:00 +13°C° 0.5 mm 6 mps 750 mmHg 75%
15:00 +13°C° 0.5 mm 6 mps 750 mmHg 76%
16:00 +13°C° 0.5 mm 6 mps 750 mmHg 78%
17:00 +13°C° 0.3 mm 5 mps 750 mmHg 80%
18:00 +12°C° 0.3 mm 4 mps 750 mmHg 83%
19:00 +11°C° 0.3 mm 3 mps 751 mmHg 86%
20:00 +10°C° 0 mm 3 mps 751 mmHg 88%
21:00 +8°C° 0 mm 3 mps 751 mmHg 91%
22:00 +7°C° 0 mm 3 mps 752 mmHg 94%
23:00 +7°C° 0 mm 3 mps 752 mmHg 94%

21 May, Friday

Time Temperature Precipitation Wind Pressure Humidity
00:00 +5°C° 0 mm 3 mps 752 mmHg 94%
01:00 +5°C° 0 mm 3 mps 752 mmHg 94%
02:00 +4°C° 0 mm 3 mps 752 mmHg 94%
03:00 +4°C° 0 mm 3 mps 752 mmHg 94%
04:00 +3°C° 0 mm 3 mps 752 mmHg 93%
05:00 +5°C° 0 mm 3 mps 752 mmHg 90%
06:00 +7°C° 0 mm 3 mps 752 mmHg 86%
07:00 +8°C° 0 mm 4 mps 753 mmHg 83%
08:00 +10°C° 0.1 mm 4 mps 752 mmHg 77%
09:00 +11°C° 0.1 mm 4 mps 752 mmHg 72%
10:00 +13°C° 0.1 mm 4 mps 752 mmHg 67%
11:00 +13°C° 0.1 mm 4 mps 752 mmHg 67%
12:00 +13°C° 0.1 mm 3 mps 751 mmHg 67%
13:00 +13°C° 0.1 mm 3 mps 751 mmHg 67%
14:00 +15°C° 0 mm 2 mps 751 mmHg 64%
15:00 +16°C° 0 mm 2 mps 750 mmHg 61%
16:00 +17°C° 0 mm 2 mps 750 mmHg 58%
17:00 +15°C° 0 mm 2 mps 749 mmHg 64%
18:00 +14°C° 0 mm 2 mps 749 mmHg 70%
19:00 +13°C° 0 mm 2 mps 748 mmHg 76%
20:00 +13°C° 0 mm 2 mps 748 mmHg 75%
21:00 +12°C° 0 mm 2 mps 748 mmHg 74%
22:00 +12°C° 0 mm 2 mps 748 mmHg 73%
23:00 +11°C° 0 mm 3 mps 748 mmHg 73%

22 May, Saturday

Time Temperature Precipitation Wind Pressure Humidity
00:00 +11°C° 0 mm 3 mps 747 mmHg 72%
01:00 +11°C° 0 mm 3 mps 747 mmHg 72%
02:00 +10°C° 0 mm 3 mps 746 mmHg 73%
03:00 +10°C° 0 mm 3 mps 746 mmHg 74%
04:00 +8°C° 0 mm 4 mps 745 mmHg 75%
05:00 +10°C° 0 mm 4 mps 745 mmHg 73%
06:00 +12°C° 0 mm 5 mps 745 mmHg 71%
07:00 +13°C° 0 mm 5 mps 745 mmHg 69%
08:00 +14°C° 0 mm 5 mps 745 mmHg 66%
09:00 +15°C° 0 mm 5 mps 746 mmHg 63%
10:00 +17°C° 0 mm 5 mps 746 mmHg 61%
11:00 +17°C° 0 mm 5 mps 746 mmHg 61%
12:00 +17°C° 0 mm 5 mps 746 mmHg 62%
13:00 +17°C° 0 mm 5 mps 746 mmHg 63%
14:00 +16°C° 0.5 mm 5 mps 746 mmHg 71%
15:00 +15°C° 0.5 mm 4 mps 746 mmHg 78%
16:00 +13°C° 0.5 mm 4 mps 746 mmHg 85%
17:00 +13°C° 0.1 mm 4 mps 746 mmHg 86%
18:00 +12°C° 0.1 mm 3 mps 746 mmHg 86%
19:00 +12°C° 0.1 mm 2 mps 746 mmHg 87%
20:00 +12°C° 0 mm 2 mps 746 mmHg 87%
21:00 +10°C° 0 mm 2 mps 746 mmHg 87%
22:00 +10°C° 0 mm 2 mps 747 mmHg 88%
23:00 +10°C° 0.1 mm 2 mps 747 mmHg 87%
Show more